[[{"header":{"parameterUnit":"m.s-1","parameterCategory":1,"la1":30.2991,"la2":30.254,"lo1":-89.0895,"lo2":-89.0444,"dy":0.0017,"dx":0.0017,"nx":28,"ny":28,"refTime":"2025-03-12T21:00:00:Z","depth":0,"parameterNumber":2,"parameterNumberName":"U-component_of_WINDS"},"data":[0,0,0,0,0,0,0,0,0,0,0,0,0,0,0,0,0,0,0,0,0,0,0,0,0,0,0,0,0,0,0,0,0,0,0,0,0,0,0,0,0,0,0,0,0,0,0,0,0,0,0,0,0,0,0,0,0,0,-0.0649,-0.0648,0,-0.0589,-0.0589,-0.0588,-0.0511,-0.051,-0.0509,-0.0507,-0.0448,-0.0447,-0.0447,0,0,0,0,0,0,0,0,0,0,0,0,0,-0.0696,-0.0695,-0.0649,-0.0648,-0.0647,-0.0589,-0.0589,-0.0588,-0.0511,-0.051,-0.0508,-0.0507,-0.0448,-0.0447,-0.0447,0,0,0,0,0,0,0,0,0,0,0,0,0,-0.066,-0.0695,-0.0649,-0.0602,-0.0597,-0.059,-0.0589,-0.0588,-0.0512,-0.051,-0.0508,-0.0506,-0.0448,-0.0447,-0.0447,-0.048,0,0,-0.0445,-0.0444,0,0,0,0,0,0,0,0,-0.0662,-0.0658,-0.061,-0.0605,-0.06,-0.0556,-0.0583,-0.0552,-0.0512,-0.0544,-0.0507,-0.0505,-0.0485,-0.0481,-0.0474,-0.0478,-0.0475,-0.0445,-0.0444,-0.0444,-0.0444,0,0,0,0,0,0,0,-0.0665,-0.066,-0.0625,-0.0609,-0.0603,-0.0584,-0.0577,-0.0577,-0.0526,-0.0541,-0.0536,-0.053,-0.0482,-0.0475,-0.0472,-0.0474,-0.0445,-0.0444,-0.0444,-0.0444,-0.05,-0.0502,0,0,0,0,0,0,-0.0674,-0.0663,-0.0627,-0.0623,-0.0627,-0.0585,-0.0577,-0.0572,-0.0526,-0.0517,-0.0531,-0.0526,-0.0477,-0.0473,-0.047,-0.0505,-0.0444,-0.0443,-0.0443,-0.0498,-0.05,-0.0502,0,0,0,0,0,0,-0.0675,-0.0672,-0.0629,-0.0642,-0.0635,-0.0586,-0.0581,-0.0572,-0.0565,-0.0518,-0.0509,-0.0534,-0.0476,-0.0471,-0.0478,-0.0502,-0.0443,-0.0443,-0.0496,-0.0499,-0.0501,-0.0577,0,0,0,0,0,0,-0.0677,-0.0673,-0.0685,-0.0642,-0.0634,-0.0639,-0.0583,-0.0572,-0.0564,-0.0556,-0.0518,-0.051,-0.0474,-0.0479,-0.0477,-0.05,-0.0442,-0.0494,-0.0497,-0.0501,-0.0572,-0.0582,-0.0591,0,0,0,0,0,-0.0679,-0.0709,-0.0686,-0.0682,-0.0649,-0.064,-0.0636,-0.0594,-0.0566,-0.0578,-0.0548,-0.0511,-0.05,-0.0481,-0.0478,-0.0501,-0.0492,-0.0496,-0.05,-0.0568,-0.058,-0.0591,0,0,0,0,0,0,-0.0757,-0.0703,-0.0677,-0.0694,-0.0672,-0.0627,-0.0641,-0.0608,-0.0594,-0.0588,-0.0537,-0.0529,-0.0542,-0.0522,-0.0501,-0.053,-0.049,-0.0494,-0.0543,-0.0554,-0.0563,-0.0568,-0.0442,0,0,0,0,0,-0.0776,-0.0773,-0.0726,-0.0746,-0.0737,-0.0691,-0.0686,-0.0655,-0.0631,-0.0621,-0.0591,-0.0569,-0.056,-0.0556,-0.0546,-0.0569,-0.0559,-0.0583,-0.0593,-0.06,-0.0604,-0.0614,-0.0624,-0.0516,-0.0516,-0.0516,0,0,-0.0816,-0.0786,-0.0787,-0.0761,-0.0741,-0.0739,-0.0684,-0.0685,-0.0683,-0.0621,-0.0626,-0.0603,-0.0575,-0.059,-0.0595,-0.0574,-0.0632,-0.0606,-0.0612,-0.0612,-0.0619,-0.063,-0.0639,-0.0519,-0.0519,-0.0518,0,0,-0.0887,-0.0864,-0.0878,-0.0858,-0.0827,-0.0797,-0.08,-0.076,-0.0742,-0.0746,-0.0699,-0.0696,-0.0682,-0.0664,-0.0653,-0.0715,-0.068,-0.0713,-0.0762,-0.0771,-0.078,-0.0787,-0.0809,-0.0817,-0.0717,-0.0717,-0.0717,0,-0.094,-0.0936,-0.0889,-0.0892,-0.0882,-0.0825,-0.0838,-0.0821,-0.0789,-0.0783,-0.0759,-0.074,-0.0717,-0.0726,-0.0742,-0.0735,-0.0736,-0.0718,-0.0782,-0.0789,-0.0795,-0.0815,-0.0824,-0.0721,-0.0721,-0.0721,-0.072,0,-0.1002,-0.1,-0.1015,-0.0984,-0.0975,-0.0983,-0.0938,-0.0934,-0.0904,-0.0875,-0.0879,-0.0849,-0.0831,-0.0831,-0.0802,-0.0836,-0.0823,-0.0792,-0.0751,-0.0811,-0.0829,-0.0836,-0.0727,-0.0726,-0.0725,-0.0724,0,0,-0.1123,-0.1065,-0.1071,-0.1056,-0.1017,-0.1014,-0.1019,-0.1001,-0.0999,-0.0978,-0.0981,-0.097,-0.094,-0.0927,-0.0895,-0.0904,-0.0954,-0.0871,-0.0869,-0.0887,-0.0989,-0.1013,-0.1023,-0.0931,-0.0932,-0.0933,-0.0991,0,-0.1187,-0.1192,-0.115,-0.1167,-0.1163,-0.1108,-0.1113,-0.1089,-0.1062,-0.1055,-0.1026,-0.1018,-0.098,-0.0972,-0.0978,-0.0947,-0.0974,-0.0942,-0.0932,-0.0933,-0.0942,-0.1032,-0.1058,-0.1114,-0.0998,-0.0999,-0.1,0,-0.1263,-0.1245,-0.1262,-0.1221,-0.1218,-0.1222,-0.1201,-0.1195,-0.1167,-0.1147,-0.1132,-0.1095,-0.1096,-0.1057,-0.1058,-0.1037,-0.103,-0.1014,-0.1015,-0.1013,-0.097,-0.1032,-0.1131,-0.114,-0.1011,-0.101,-0.1009,0,-0.1348,-0.1329,-0.1336,-0.1325,-0.1277,-0.1282,-0.1262,-0.1232,-0.1223,-0.1204,-0.1198,-0.118,-0.1171,-0.1158,-0.1116,-0.1091,-0.1122,-0.1079,-0.1105,-0.1106,-0.1114,-0.1115,-0.1214,-0.111,-0.111,-0.111,-0.111,0,-0.1425,-0.1437,-0.1374,-0.1378,-0.139,-0.134,-0.1353,-0.1328,-0.1301,-0.1299,-0.1251,-0.125,-0.1195,-0.1188,-0.1156,-0.1161,-0.1157,-0.1141,-0.1132,-0.1145,-0.1147,-0.114,-0.1135,-0.1112,-0.1112,-0.1111,-0.1111,0,-0.1523,-0.1481,-0.1485,-0.1439,-0.1427,-0.1438,-0.1399,-0.14,-0.137,-0.1368,-0.1365,-0.1317,-0.1306,-0.1263,-0.1242,-0.122,-0.1236,-0.1219,-0.1246,-0.124,-0.1268,-0.1266,-0.1367,-0.1377,-0.1267,-0.1268,-0.1269,0,-0.1575,-0.1582,-0.1537,-0.1532,-0.1514,-0.1507,-0.1497,-0.1448,-0.144,-0.1408,-0.1414,-0.1398,-0.1384,-0.1369,-0.1332,-0.1315,-0.1297,-0.1334,-0.1295,-0.1307,-0.1298,-0.1298,-0.1298,-0.1343,-0.1344,-0.1345,-0.1346,0,-0.1671,-0.1649,-0.1637,-0.1617,-0.1607,-0.1589,-0.1569,-0.1568,-0.1513,-0.1506,-0.1494,-0.1483,-0.146,-0.1446,-0.1422,-0.1402,-0.1365,-0.1358,-0.1363,-0.1377,-0.1392,-0.1384,-0.1269,-0.1357,-0.1356,-0.1355,-0.1354,-0.1354,-0.1747,-0.1751,-0.1719,-0.1707,-0.1686,-0.1667,-0.1667,-0.1635,-0.1624,-0.1602,-0.1573,-0.1565,-0.1534,-0.1499,-0.1481,-0.1473,-0.1453,-0.146,-0.1462,-0.1465,-0.1471,-0.1393,-0.1469,-0.1468,-0.1468,-0.1468,-0.1468,0,-0.184,-0.1817,-0.1806,-0.1778,-0.1768,-0.1733,-0.1708,-0.1702,-0.1695,-0.167,-0.1656,-0.1641,-0.1627,-0.1588,-0.1569,-0.157,-0.1553,-0.1567,-0.1567,-0.1562,-0.1491,-0.1488,-0.1581,-0.1581,-0.1581,-0.1581,-0.1581,-0.1581,-0.1888,-0.1892,-0.1867,-0.186,-0.1836,-0.1827,-0.1815,-0.1798,-0.1777,-0.1763,-0.175,-0.1725,-0.1694,-0.1672,-0.1656,-0.1645,-0.1641,-0.1661,-0.1644,-0.1578,-0.1567,-0.1557,-0.1554,-0.166,-0.166,-0.1716,-0.1717,-0.1717]},{"header":{"parameterUnit":"m.s-1","parameterCategory":1,"la1":30.2991,"la2":30.254,"lo1":-89.0895,"lo2":-89.0444,"dy":0.0017,"dx":0.0017,"nx":28,"ny":28,"refTime":"2025-03-12T21:00:00:Z","depth":0,"parameterNumber":3,"parameterNumberName":"V-component_of_WINDS"},"data":[0,0,0,0,0,0,0,0,0,0,0,0,0,0,0,0,0,0,0,0,0,0,0,0,0,0,0,0,0,0,0,0,0,0,0,0,0,0,0,0,0,0,0,0,0,0,0,0,0,0,0,0,0,0,0,0,0,0,3.9176,3.9175,0,3.908,3.9079,3.9078,3.9062,3.9063,3.9064,3.9065,3.8958,3.8955,3.8951,0,0,0,0,0,0,0,0,0,0,0,0,0,3.9341,3.9338,3.9176,3.9175,3.9174,3.908,3.9079,3.9077,3.9062,3.9063,3.9064,3.9065,3.896,3.8955,3.8951,0,0,0,0,0,0,0,0,0,0,0,0,0,3.9259,3.9337,3.9177,3.9155,3.9152,3.908,3.9079,3.9077,3.9062,3.9063,3.9064,3.9066,3.8961,3.8956,3.895,3.8891,0,0,3.8934,3.8931,0,0,0,0,0,0,0,0,3.9264,3.9253,3.916,3.9157,3.9153,3.9085,3.9098,3.9014,3.9061,3.9096,3.9065,3.9066,3.8999,3.899,3.8969,3.8886,3.8881,3.8933,3.893,3.8928,3.8926,0,0,0,0,0,0,0,3.9269,3.9257,3.9138,3.9158,3.9154,3.9148,3.9138,3.9082,3.9041,3.9093,3.9092,3.9081,3.8997,3.8975,3.8967,3.888,3.8933,3.8929,3.8925,3.8923,3.8743,3.8742,0,0,0,0,0,0,3.928,3.9262,3.9141,3.9135,3.9213,3.9144,3.9133,3.9105,3.9042,3.9033,3.908,3.9081,3.8983,3.8973,3.8963,3.889,3.8928,3.8923,3.8919,3.8745,3.8743,3.8741,0,0,0,0,0,0,3.9283,3.9269,3.9145,3.9198,3.9182,3.914,3.9109,3.9103,3.908,3.9032,3.9024,3.9065,3.8984,3.897,3.891,3.8886,3.892,3.8915,3.8746,3.8744,3.8742,3.8743,0,0,0,0,0,0,3.9288,3.9271,3.9249,3.9198,3.9179,3.9095,3.9108,3.91,3.9071,3.9071,3.9015,3.9007,3.8984,3.8918,3.8904,3.8879,3.8911,3.8748,3.8745,3.8743,3.8745,3.8741,3.8737,0,0,0,0,0,3.9294,3.9251,3.9248,3.9234,3.9152,3.9094,3.9083,3.9059,3.907,3.9047,3.9016,3.9009,3.8891,3.8912,3.8896,3.8869,3.875,3.8746,3.8743,3.8746,3.8741,3.8737,0,0,0,0,0,0,3.9298,3.9244,3.924,3.918,3.9142,3.9092,3.9062,3.9055,3.9011,3.9013,3.8982,3.897,3.8911,3.8883,3.8908,3.8808,3.8821,3.8814,3.8828,3.8824,3.882,3.8828,3.8906,0,0,0,0,0,3.9292,3.9252,3.9206,3.9157,3.9139,3.9104,3.9078,3.9063,3.9021,3.9005,3.8969,3.8927,3.8881,3.885,3.8805,3.874,3.8728,3.8714,3.871,3.8708,3.8702,3.8667,3.866,3.873,3.873,3.873,0,0,3.9279,3.9244,3.922,3.9157,3.9126,3.9084,3.909,3.9044,3.9012,3.8997,3.8938,3.8911,3.8862,3.8799,3.877,3.8775,3.868,3.8703,3.8702,3.8697,3.8663,3.8656,3.865,3.8728,3.8728,3.8728,0,0,3.9233,3.9203,3.916,3.913,3.9084,3.9061,3.9051,3.9002,3.8984,3.8925,3.8913,3.8873,3.8793,3.8759,3.8731,3.8674,3.8666,3.866,3.8641,3.8607,3.8601,3.8596,3.8576,3.857,3.8654,3.8654,3.8654,0,3.9222,3.916,3.9138,3.9094,3.9066,3.9053,3.9008,3.8979,3.8919,3.8899,3.8906,3.8807,3.8773,3.8703,3.8689,3.8667,3.8653,3.8666,3.8604,3.8599,3.8594,3.8575,3.8567,3.8654,3.8654,3.8654,3.8654,0,3.9148,3.9105,3.9075,3.9022,3.8991,3.8946,3.8916,3.8886,3.8874,3.885,3.879,3.8749,3.8696,3.8678,3.8664,3.8605,3.861,3.8611,3.8623,3.8587,3.8569,3.8561,3.8654,3.8654,3.8654,3.8654,0,0,3.9101,3.9038,3.9028,3.9004,3.8953,3.8918,3.8872,3.8823,3.8798,3.8757,3.8718,3.8651,3.8652,3.8621,3.8603,3.8573,3.8531,3.8577,3.8576,3.8571,3.8465,3.8465,3.8457,3.8526,3.8524,3.8523,3.8469,0,3.9051,3.8972,3.8952,3.8884,3.8844,3.8832,3.8792,3.8755,3.8731,3.8692,3.8665,3.8619,3.8623,3.8604,3.8574,3.8543,3.851,3.8546,3.8487,3.8486,3.8501,3.8447,3.8447,3.8398,3.8461,3.846,3.8459,0,3.8981,3.8942,3.8872,3.8828,3.881,3.8775,3.8728,3.8691,3.8649,3.8634,3.86,3.8585,3.8535,3.855,3.8481,3.8506,3.8481,3.8462,3.8459,3.8453,3.8471,3.844,3.8382,3.8375,3.8447,3.8448,3.8449,0,3.8955,3.8885,3.8834,3.8814,3.876,3.8736,3.8712,3.8672,3.8643,3.8602,3.8583,3.8535,3.8508,3.8471,3.8443,3.8456,3.8376,3.8388,3.8361,3.8362,3.8345,3.8346,3.8282,3.8327,3.8327,3.8328,3.8328,0,3.89,3.8858,3.8822,3.8791,3.8743,3.8719,3.8671,3.8646,3.861,3.8572,3.8557,3.8521,3.8487,3.8446,3.8424,3.837,3.8358,3.8343,3.8338,3.8345,3.8347,3.8328,3.8331,3.8326,3.8326,3.8326,3.8327,0,3.8863,3.8838,3.8782,3.8737,3.8725,3.8691,3.8652,3.862,3.8596,3.8549,3.8536,3.8498,3.8449,3.8418,3.8355,3.834,3.8282,3.8277,3.8297,3.8295,3.827,3.8273,3.8192,3.818,3.8232,3.8232,3.8231,0,3.8831,3.8799,3.8751,3.8727,3.8704,3.8663,3.8635,3.861,3.8581,3.8531,3.8505,3.8457,3.8416,3.8339,3.8304,3.8256,3.825,3.8225,3.8243,3.8251,3.825,3.8253,3.825,3.8222,3.8222,3.8221,3.8221,0,3.8776,3.8766,3.8728,3.8686,3.8654,3.8618,3.8583,3.8562,3.8531,3.8499,3.8451,3.842,3.8357,3.8309,3.8258,3.823,3.822,3.8216,3.8207,3.8215,3.8228,3.8221,3.829,3.8218,3.8218,3.8219,3.8219,3.8219,3.874,3.8712,3.8675,3.8633,3.8604,3.8572,3.8541,3.8515,3.8475,3.8424,3.8411,3.8361,3.8319,3.825,3.8222,3.8181,3.8184,3.8171,3.8168,3.8165,3.8165,3.8235,3.8171,3.8171,3.8171,3.8171,3.8171,0,3.8685,3.8662,3.8624,3.8577,3.8544,3.854,3.85,3.8472,3.843,3.8393,3.8355,3.8299,3.8252,3.8215,3.8166,3.814,3.8134,3.8128,3.813,3.8124,3.8165,3.8178,3.8134,3.8134,3.8134,3.8134,3.8134,3.8134,3.8653,3.8605,3.859,3.8527,3.8502,3.8456,3.8434,3.8403,3.8374,3.8315,3.8277,3.8254,3.8216,3.8165,3.8121,3.8111,3.8094,3.8089,3.8078,3.8117,3.8121,3.8125,3.8137,3.8085,3.8085,3.804,3.804,3.804]}]]